Temperature
16 16 15 15 15 15 15 15 15 15 15 15 15 15 15 15 15 15 15 15 15 15 15 15 14 14 14 15 15 15 15 14 15 14 15 15 15 15 15 15 15 15 15
16 15 15 15 15 15 15 15 15 15 15 15 15 15 15 15 15 15 15 15 15 15 15 14 14 14 14 14 14 14 14 14 14 14 14 14 14 14 14 14 14 14 14
16 15 15 15 15 15 15 15 15 15 15 15 15 15 15 14 14 14 14 14 14 14 14 14 14 14 14 14 14 14 14 14 14 14 14 14 14 14 14 14 14 14 14
16 15 15 15 15 15 15 15 15 15 15 15 15 15 14 14 14 14 14 14 14 14 14 14 14 14 14 14 14 14 13 14 14 14 14 14 14 14 14 14 14 14 14
15 15 15 15 15 15 15 15 15 15 15 15 14 14 14 14 14 14 14 14 14 14 14 14 14 14 13 13 13 13 13 13 13 13 13 13 13 13 13 13 13 13 13
15 15 15 15 15 15 15 15 15 14 14 14 14 14 14 14 14 14 14 14 14 14 13 13 14 14 13 13 13 13 13 13 13 13 13 13 13 13 13 13 13 13 13
15 15 15 15 15 15 14 14 14 14 14 14 14 14 14 14 14 14 14 14 14 13 13 13 13 13 13 13 13 13 13 13 13 13 13 13 13 13 13 13 13 13 13
15 15 15 15 15 14 14 14 14 14 14 14 14 14 14 14 14 14 14 14 13 13 13 13 13 13 13 13 13 13 13 13 13 13 13 13 13 12 12 12 12 12 12
15 15 15 15 14 14 14 14 14 14 14 14 14 14 14 14 14 13 13 14 13 13 13 13 13 13 13 13 13 13 13 13 13 13 13 13 12 12 12 12 12 12 12
15 15 15 15 14 14 14 14 14 14 14 14 14 14 14 14 14 13 13 13 13 13 13 13 13 13 13 13 13 13 13 13 13 12 12 12 12 12 12 12 12 12 12
15 15 15 15 15 14 14 14 14 14 14 14 14 14 14 14 14 13 13 13 13 13 13 13 13 12 12 12 12 12 12 12 12 12 12 12 12 12 12 12 12 11 11
15 15 15 15 15 14 14 14 14 14 14 14 14 14 14 14 14 14 13 13 13 13 13 13 13 12 12 12 12 12 12 12 12 12 12 12 12 12 12 11 11 11 11
15 15 15 15 14 14 14 14 14 14 14 14 14 14 13 14 14 14 13 13 13 13 13 13 13 12 12 12 12 12 12 12 12 12 12 12 12 12 11 11 11 11 11
15 15 15 15 14 14 14 14 14 14 14 14 14 14 13 13 13 13 13 13 13 13 13 12 12 12 12 12 12 12 12 12 12 12 12 12 12 11 11 11 11 11 11
15 15 15 14 14 14 14 14 14 14 14 14 14 14 13 13 13 13 13 13 13 12 12 12 12 12 12 12 12 12 12 12 12 12 12 12 11 11 11 11 11 11 11
15 15 14 14 14 14 14 14 14 14 14 14 14 13 13 13 13 13 13 13 13 13 12 12 12 12 12 12 12 12 11 11 11 11 11 11 11 11 11 11 11 11 11
15 14 14 14 14 14 14 14 14 14 14 14 13 13 13 13 13 13 13 13 13 13 13 12 12 12 12 12 12 12 11 11 11 11 12 11 11 11 11 11 11 11 11
15 14 14 14 14 14 13 13 13 13 13 13 13 13 13 13 13 13 13 13 13 13 13 12 12 12 12 12 12 12 11 11 11 11 11 11 11 11 11 11 11 11 11
14 14 14 14 14 13 13 13 13 13 13 13 13 13 13 13 13 13 13 13 13 12 12 12 12 12 12 12 11 11 11 11 11 11 11 11 11 11 11 11 11 11 10
14 14 14 13 13 13 13 13 13 13 13 13 13 13 13 13 13 13 13 13 12 12 12 12 12 12 11 11 11 11 11 11 11 11 11 11 11 11 11 11 10 10 10
13 13 13 13 13 13 13 13 13 13 12 12 12 12 13 13 13 13 12 12 12 12 12 12 12 12 11 11 11 11 11 11 10 11 11 11 11 11 11 10 10 10 10
13 13 13 13 13 13 13 12 12 12 12 12 12 12 12 12 12 12 12 12 12 12 12 12 12 12 12 11 11 11 11 10 10 10 10 11 10 10 10 10 10 10 10
12 12 12 12 12 12 12 12 12 12 12 12 12 12 12 12 12 12 12 12 12 12 12 12 12 12 12 11 11 11 11 11 11 10 10 10 10 10 10 10 10 10 10
12 12 12 12 12 12 12 12 12 12 12 12 12 12 11 11 11 11 11 11 11 11 11 11 11 11 11 11 11 11 11 10 10 10 10 10 10 10 10 10 10 10 10
11 11 11 11 11 11 11 11 11 11 11 11 11 11 11 11 11 11 11 11 11 11 11 11 11 11 11 11 10 10 10 10 9 9 9 9 9 9 9 9 9 9 9
11 11 11 11 11 11 11 11 11 11 11 11 11 11 11 11 11 11 11 11 10 10 10 10 10 10 10 10 10 10 10 10 9 9 9 9 9 9 9 9 9 9 9
Wind_Speed
3 3 4 3 4 4 4 4 4 5 6 7 8 8 8 10 10 11 11 14 14 14 14 14 14 14 14 13 14 14 14 13 13 13 13 13 12 11 10 10 10 10 9
4 3 4 3 3 3 4 4 5 4 5 5 6 7 7 9 9 10 10 12 14 14 14 14 14 13 13 13 14 14 14 14 14 13 13 13 13 12 11 10 10 10 10
6 4 3 2 2 4 5 5 5 4 4 4 5 6 6 7 7 8 8 9 11 13 13 13 13 12 12 12 13 13 14 14 14 14 13 13 13 12 11 10 10 10 10
7 5 3 2 4 5 4 3 3 4 4 4 4 4 4 5 6 7 7 8 8 9 11 12 12 12 12 12 13 13 13 13 13 13 13 13 13 13 13 12 11 10 10
7 5 3 3 5 4 3 3 4 3 4 3 3 3 3 3 4 6 6 7 8 8 9 10 11 11 11 11 12 12 12 12 13 13 13 13 12 12 12 12 12 11 11
5 5 2 4 5 3 3 3 4 3 2 2 3 4 3 3 3 4 4 5 6 7 8 8 8 9 11 11 11 11 11 11 11 11 11 11 11 11 11 11 11 11 11
5 4 3 3 3 3 3 3 2 2 2 1 2 2 2 3 3 3 2 3 4 5 6 7 7 8 8 9 9 9 9 9 9 9 9 10 10 10 10 10 11 11 11
3 2 3 3 3 3 3 3 2 1 1 1 1 1 1 2 2 2 2 2 2 3 4 5 6 8 8 8 8 9 9 8 7 7 8 8 8 8 9 9 10 11 11
2 3 3 3 3 3 2 1 2 1 1 2 1 2 1 1 0 1 1 2 2 3 2 3 6 7 9 8 7 7 8 7 7 6 6 6 6 7 7 8 9 10 10
2 3 3 3 3 3 3 2 2 1 1 1 1 2 1 2 1 0 1 1 2 3 2 3 4 6 8 9 8 7 7 7 6 6 5 5 5 6 7 8 8 9 9
2 3 3 2 3 2 2 1 2 2 1 1 0 1 1 1 0 2 0 0 1 1 2 2 3 5 7 8 8 7 7 6 6 5 5 5 6 7 6 6 7 7 8
2 2 3 2 3 2 2 2 1 1 1 1 1 1 1 0 1 1 1 1 1 0 2 2 2 3 5 7 7 7 6 6 5 5 5 5 5 6 6 6 6 6 6
2 2 2 2 2 2 2 2 2 2 2 2 1 1 1 1 1 1 1 0 0 0 1 1 2 3 4 7 7 7 6 5 5 5 5 5 5 6 5 5 5 5 5
3 2 2 2 1 1 2 2 2 2 2 2 2 1 1 1 0 1 1 1 0 1 0 1 1 3 4 6 7 6 5 5 5 5 5 5 5 5 5 5 5 5 5
3 3 2 2 2 1 1 1 2 2 2 2 2 2 2 1 1 1 1 2 2 1 1 1 1 2 5 6 6 6 4 5 6 5 4 4 4 4 4 4 4 4 4
2 3 3 2 2 2 2 1 1 1 2 2 2 2 1 1 1 1 1 1 1 2 1 1 2 2 4 5 6 6 5 6 6 5 4 4 4 4 4 3 3 3 3
2 3 3 2 2 2 2 2 2 2 2 2 3 3 3 3 2 2 1 1 1 1 2 1 1 2 3 2 4 4 5 6 6 6 6 5 5 5 4 4 3 3 2
2 3 3 3 2 2 2 3 3 2 2 2 3 2 3 2 3 2 2 2 2 2 3 2 1 1 3 3 4 3 4 5 5 6 6 7 6 6 5 5 5 4 3
2 2 2 2 2 1 1 1 1 1 2 2 2 2 2 2 2 2 3 2 2 2 2 2 2 1 1 2 2 2 3 3 4 5 7 7 7 7 6 6 6 6 5
1 1 2 2 2 2 1 1 1 2 2 2 2 2 2 2 2 2 2 2 2 2 1 1 1 1 1 2 2 2 1 1 1 3 5 5 7 7 8 8 8 7 7
1 1 1 2 2 2 2 1 1 2 1 1 1 2 2 2 2 2 1 1 2 2 2 2 2 1 1 1 2 2 3 2 1 2 2 3 4 4 6 8 9 9 9
1 1 1 1 1 1 1 1 1 1 1 2 2 2 2 2 2 3 2 3 2 2 3 3 3 3 3 3 3 3 3 2 2 2 3 2 3 3 4 7 9 10 11
1 1 1 1 1 1 2 2 1 1 2 2 3 2 2 2 2 2 3 4 4 5 4 4 3 4 3 3 4 3 3 3 3 3 3 2 2 3 5 7 11 11 12
1 2 2 2 2 1 3 3 3 3 2 3 2 2 2 1 2 2 2 2 3 4 5 4 5 5 3 3 4 5 5 3 2 2 3 3 3 3 3 6 11 13 12
2 2 2 2 2 2 3 3 3 2 3 3 2 2 2 2 3 3 2 3 3 3 3 4 4 4 4 4 4 2 2 2 2 3 2 3 3 2 2 3 7 13 14
2 2 2 2 1 1 2 3 3 2 2 3 3 3 3 2 3 3 3 4 4 3 2 1 1 2 2 3 4 4 5 4 3 2 3 3 3 2 2 2 4 7 9
Wind_Direction
89 97 92 76 63 72 68 53 48 51 48 41 55 60 65 72 74 78 75 72 71 70 70 73 76 74 71 71 72 72 71 71 70 69 68 69 69 71 76 79 79 79 81
94 87 92 77 65 62 69 72 63 58 59 50 52 58 66 75 75 82 84 76 71 69 68 72 74 73 73 73 74 73 72 71 70 69 69 70 69 71 75 80 80 78 77
85 83 81 71 69 61 61 61 62 64 73 65 58 56 57 64 75 84 87 88 80 71 71 72 72 73 75 75 75 73 72 71 69 68 70 71 70 70 71 75 79 79 79
84 77 76 69 67 59 60 55 52 57 59 60 55 55 55 51 60 73 80 87 90 86 80 76 74 74 75 76 77 75 73 72 71 70 72 72 71 69 68 70 75 81 80
87 87 76 81 74 61 50 50 53 60 69 67 69 72 64 57 48 58 68 79 86 97 99 87 80 76 73 74 76 76 74 73 73 73 72 70 70 69 69 73 77 80 78
83 86 84 76 79 70 52 54 57 51 65 73 65 68 68 80 62 46 45 71 81 94 103 104 96 81 76 74 73 71 74 74 73 73 72 70 69 69 71 75 79 81 79
92 88 79 74 75 86 82 76 65 54 42 67 72 53 41 72 83 72 42 54 71 79 94 103 105 98 88 77 73 69 68 71 74 74 72 71 70 71 73 76 79 81 81
94 116 112 104 94 95 80 75 73 50 356 33 93 89 67 29 27 89 79 68 63 61 74 88 106 107 100 89 76 67 63 64 70 75 76 73 72 73 75 78 81 81 82
138 118 110 114 121 114 109 110 113 87 5 349 50 88 104 128 333 24 89 88 81 63 57 67 79 94 103 99 88 74 66 61 63 68 74 78 77 79 81 86 85 85 83
131 127 120 117 123 125 139 183 147 133 121 331 359 32 94 140 135 54 353 85 119 102 87 73 71 79 96 102 98 86 74 62 61 62 68 79 83 90 91 90 90 89 86
151 138 128 124 132 139 155 185 152 170 160 181 154 45 17 9 119 132 217 301 62 100 113 101 91 88 96 110 106 95 86 77 67 64 68 82 90 92 91 92 93 94 92
167 152 152 161 159 166 172 176 175 170 192 196 157 141 168 171 279 130 167 212 148 156 107 101 106 104 104 107 112 108 101 90 77 72 78 88 96 98 97 96 96 95 97
164 184 179 184 177 176 177 172 176 185 199 192 188 193 176 204 203 134 126 200 103 182 107 113 122 123 121 117 121 118 112 101 90 83 90 97 103 103 99 102 100 97 98
180 178 182 185 192 183 179 168 176 191 195 191 189 164 160 223 167 161 159 139 87 339 79 170 126 134 131 130 140 138 135 131 121 105 104 107 109 107 104 100 98 95 95
178 165 175 183 199 199 197 174 177 202 187 181 182 175 183 189 196 207 156 152 154 184 259 201 169 152 136 126 145 151 154 160 149 136 125 120 118 120 114 106 104 99 94
172 152 177 195 199 189 190 188 169 232 175 179 165 168 184 192 183 173 169 192 160 170 214 211 180 167 146 144 159 161 161 153 152 155 158 157 150 144 139 133 122 116 108
177 167 176 190 207 205 189 184 196 220 200 202 202 185 195 184 173 192 182 183 228 164 180 242 178 159 142 143 138 162 160 156 163 175 179 179 174 172 172 170 160 148 139
187 173 170 182 204 217 214 203 206 214 206 214 221 202 200 183 188 198 188 200 212 207 175 197 206 161 170 169 156 164 165 173 175 185 188 190 188 187 186 184 184 178 174
179 179 167 171 192 202 240 253 216 239 223 218 227 229 212 182 197 202 186 201 213 214 177 182 204 196 186 174 159 177 165 163 185 188 192 196 198 199 201 202 198 197 194
188 174 172 175 182 188 193 226 219 246 242 236 226 214 193 181 188 199 189 204 199 187 181 180 192 196 195 201 160 176 192 198 201 195 191 194 201 208 214 213 210 207 203
259 219 186 178 183 185 189 198 245 252 248 243 236 214 172 150 156 166 189 220 207 190 183 187 194 197 204 183 194 191 193 201 228 191 163 180 181 194 213 220 217 212 209
275 256 206 188 171 191 172 184 235 250 242 250 250 239 206 179 196 206 227 231 222 207 205 194 202 207 218 206 189 186 188 192 251 222 169 208 169 201 204 207 208 208 208
298 291 259 203 178 180 157 175 235 264 260 250 247 247 246 202 181 199 224 240 244 244 224 206 208 220 210 201 184 192 196 198 218 213 164 219 215 215 211 219 211 208 208
294 281 266 236 221 206 185 197 227 230 252 257 247 235 223 221 222 193 195 223 236 237 230 232 226 224 217 196 192 194 196 196 225 223 167 211 225 227 219 210 212 206 206
278 283 277 253 227 210 202 215 212 232 252 264 259 233 213 218 237 219 204 231 242 261 253 230 235 224 202 190 184 168 175 175 234 245 203 189 218 226 230 214 208 207 208
279 280 284 277 249 212 195 202 201 221 248 265 266 258 251 247 239 210 208 220 230 238 247 285 258 239 216 210 199 180 185 192 210 237 217 184 209 189 244 240 193 196 206
Height
1536 1536 1537 1537 1537 1537 1538 1538 1538 1538 1538 1538 1538 1538 1538 1537 1537 1537 1537 1537 1536 1536 1536 1536 1535 1535 1535 1535 1535 1534 1534 1534 1533 1533 1533 1532 1532 1532 1532 1533 1533 1533 1534
1537 1538 1538 1538 1538 1539 1539 1539 1539 1539 1539 1539 1539 1539 1539 1539 1539 1539 1538 1538 1538 1537 1537 1537 1537 1537 1537 1536 1536 1536 1535 1535 1535 1534 1534 1534 1533 1533 1533 1534 1534 1534 1535
1538 1538 1539 1539 1539 1540 1540 1540 1540 1540 1540 1540 1541 1541 1541 1541 1541 1541 1540 1540 1539 1539 1539 1539 1539 1538 1538 1538 1538 1537 1537 1536 1536 1536 1535 1535 1535 1535 1535 1535 1535 1535 1536
1539 1539 1539 1540 1540 1541 1541 1541 1541 1541 1542 1542 1542 1542 1542 1543 1542 1542 1542 1541 1541 1541 1540 1540 1540 1540 1540 1539 1539 1538 1538 1538 1538 1537 1537 1537 1536 1536 1536 1536 1536 1536 1537
1539 1540 1540 1541 1541 1541 1542 1542 1542 1542 1542 1542 1543 1543 1543 1544 1544 1544 1543 1543 1542 1542 1542 1542 1541 1541 1541 1540 1540 1540 1540 1539 1539 1538 1538 1538 1538 1537 1537 1537 1537 1537 1538
1539 1540 1541 1541 1541 1542 1542 1542 1542 1543 1543 1543 1544 1544 1544 1544 1545 1544 1544 1544 1544 1544 1543 1543 1543 1542 1542 1541 1541 1541 1541 1540 1540 1540 1539 1539 1539 1538 1538 1538 1539 1539 1539
1539 1540 1541 1541 1541 1542 1542 1542 1543 1543 1543 1544 1544 1544 1545 1545 1545 1545 1545 1545 1545 1545 1544 1544 1544 1543 1543 1542 1542 1542 1541 1541 1541 1540 1540 1540 1539 1539 1539 1539 1539 1539 1540
1539 1540 1541 1541 1541 1542 1542 1542 1543 1543 1544 1544 1545 1544 1545 1547 1546 1546 1546 1546 1545 1545 1545 1545 1545 1544 1544 1543 1543 1543 1542 1541 1541 1540 1540 1539 1539 1539 1540 1540 1540 1540 1540
1539 1540 1540 1541 1541 1541 1542 1542 1543 1543 1544 1544 1545 1546 1546 1546 1547 1547 1547 1546 1546 1546 1546 1546 1546 1545 1544 1544 1543 1543 1542 1542 1541 1540 1539 1539 1539 1539 1539 1539 1540 1540 1541
1538 1539 1540 1541 1541 1541 1541 1542 1543 1543 1543 1544 1545 1545 1546 1546 1546 1547 1547 1547 1546 1546 1546 1546 1546 1546 1545 1544 1544 1543 1542 1541 1540 1539 1538 1538 1538 1539 1539 1539 1540 1541 1541
1537 1538 1539 1539 1540 1541 1541 1542 1542 1543 1543 1544 1544 1545 1545 1545 1546 1546 1546 1547 1547 1546 1546 1546 1546 1546 1545 1544 1543 1543 1542 1541 1539 1538 1536 1536 1537 1538 1539 1539 1540 1541 1542
1536 1537 1538 1538 1539 1539 1540 1541 1541 1542 1543 1543 1544 1544 1544 1545 1545 1545 1545 1546 1546 1546 1546 1546 1546 1545 1545 1544 1543 1542 1541 1540 1538 1536 1534 1534 1536 1537 1538 1539 1540 1541 1542
1534 1535 1536 1537 1538 1538 1539 1540 1540 1541 1541 1542 1543 1543 1544 1544 1544 1545 1545 1545 1545 1546 1546 1546 1546 1545 1544 1544 1543 1542 1541 1540 1538 1536 1534 1534 1535 1537 1538 1539 1541 1541 1542
1532 1533 1534 1535 1536 1537 1538 1538 1539 1539 1540 1540 1541 1542 1542 1543 1543 1544 1544 1544 1544 1545 1545 1545 1545 1545 1544 1544 1543 1542 1541 1540 1539 1537 1536 1536 1537 1538 1539 1540 1541 1541 1542
1530 1531 1532 1533 1534 1535 1536 1536 1537 1538 1538 1539 1539 1540 1541 1541 1542 1542 1543 1543 1544 1544 1544 1544 1544 1544 1544 1543 1543 1542 1541 1540 1539 1538 1538 1538 1538 1539 1540 1540 1541 1542 1542
1529 1529 1530 1531 1532 1533 1534 1534 1535 1536 1537 1537 1538 1538 1539 1539 1540 1541 1541 1542 1542 1543 1543 1543 1543 1543 1543 1542 1542 1541 1540 1540 1539 1539 1539 1539 1539 1540 1540 1541 1541 1541 1542
1526 1527 1528 1529 1530 1531 1532 1532 1533 1534 1535 1535 1536 1536 1537 1538 1538 1539 1539 1540 1541 1541 1541 1542 1542 1542 1541 1541 1540 1540 1540 1539 1539 1539 1539 1539 1539 1540 1540 1540 1540 1541 1541
1524 1525 1526 1526 1528 1529 1529 1530 1530 1531 1532 1533 1534 1534 1535 1536 1536 1537 1537 1538 1539 1539 1539 1539 1540 1540 1540 1540 1539 1539 1538 1538 1538 1538 1538 1538 1539 1539 1539 1539 1540 1540 1540
1522 1523 1523 1524 1525 1526 1527 1527 1528 1529 1529 1530 1531 1532 1533 1533 1534 1534 1535 1535 1536 1537 1537 1537 1537 1538 1538 1538 1538 1537 1537 1537 1537 1537 1537 1537 1537 1537 1538 1538 1539 1539 1539
1520 1520 1521 1521 1522 1523 1524 1525 1525 1526 1526 1527 1528 1529 1530 1530 1531 1532 1532 1532 1533 1534 1534 1535 1535 1535 1536 1536 1536 1535 1535 1535 1536 1536 1535 1535 1536 1536 1536 1537 1537 1537 1538
1517 1518 1518 1519 1520 1520 1521 1522 1522 1523 1524 1524 1525 1526 1527 1527 1528 1529 1529 1530 1530 1531 1531 1532 1532 1532 1533 1533 1533 1533 1533 1533 1533 1534 1534 1534 1534 1534 1534 1535 1535 1535 1535
1514 1515 1515 1516 1517 1517 1518 1519 1519 1520 1521 1521 1522 1523 1524 1524 1525 1525 1526 1527 1528 1528 1528 1529 1529 1529 1529 1530 1530 1530 1530 1530 1530 1532 1531 1531 1532 1531 1532 1532 1533 1533 1533
1511 1512 1513 1513 1514 1514 1515 1516 1516 1517 1517 1518 1519 1519 1520 1520 1521 1522 1522 1523 1523 1524 1525 1525 1525 1525 1526 1526 1527 1527 1527 1527 1527 1528 1529 1528 1529 1528 1529 1529 1530 1530 1530
1508 1509 1510 1510 1511 1511 1512 1513 1513 1513 1514 1514 1515 1515 1516 1517 1517 1517 1518 1518 1518 1519 1520 1521 1521 1522 1523 1523 1524 1524 1524 1524 1524 1525 1526 1525 1525 1525 1526 1526 1526 1527 1527
1505 1506 1506 1507 1507 1508 1508 1509 1509 1510 1510 1510 1511 1512 1512 1513 1513 1513 1513 1513 1514 1514 1516 1516 1517 1518 1518 1519 1520 1520 1520 1520 1520 1520 1522 1522 1521 1522 1522 1522 1522 1523 1523
1502 1503 1503 1503 1504 1504 1505 1505 1505 1506 1506 1506 1507 1507 1508 1508 1508 1509 1509 1509 1509 1509 1511 1511 1512 1513 1514 1514 1515 1516 1516 1516 1516 1516 1517 1518 1518 1518 1518 1518 1519 1519 1519